This is the latest recevied weather packets stored in our database for station/object S57D-6. If no packets are shown the sender has not sent any weather packets the latest 10 day(s).
| Time | Temp. | Humidity | Pressure | Rain* | Wind** | Luminosity | Snow |
|---|---|---|---|---|---|---|---|
| 1777715857 | 20.56° C | 49% | 1023 hPa | 0 mm | - | - | - |
| 1777715558 | 20° C | 50% | 1023 hPa | 0 mm | - | - | - |
| 1777715257 | 20° C | 50% | 1023 hPa | 0 mm | - | - | - |
| 1777714958 | 20° C | 51% | 1023.2 hPa | 0 mm | - | - | - |
| 1777714656 | 20° C | 51% | 1023.3 hPa | 0 mm | - | - | - |
| 1777714055 | 19.44° C | 54% | 1023.4 hPa | 0 mm | - | - | - |
| 1777713759 | 18.89° C | 54% | 1023.3 hPa | 0 mm | - | - | - |
| 1777713213 | 18.89° C | 54% | 1023.6 hPa | 0 mm | - | - | - |
| 1777712613 | 18.89° C | 57% | 1023.6 hPa | 0 mm | - | - | - |
| 1777712315 | 18.33° C | 58% | 1023.7 hPa | 0 mm | - | - | - |
| 1777712012 | 18.33° C | 58% | 1023.7 hPa | 0 mm | - | - | - |
| 1777711717 | 17.78° C | 58% | 1023.8 hPa | 0 mm | - | - | - |
| 1777711230 | 17.22° C | 59% | 1023.9 hPa | 0 mm | - | - | - |
| 1777710931 | 17.22° C | 60% | 1023.9 hPa | 0 mm | - | - | - |
| 1777710629 | 17.22° C | 60% | 1024 hPa | 0 mm | - | - | - |
| 1777710330 | 16.67° C | 60% | 1023.9 hPa | 0 mm | - | - | - |
| 1777710029 | 16.67° C | 60% | 1024 hPa | 0 mm | - | - | - |
| 1777709428 | 15.56° C | 62% | 1024.2 hPa | 0 mm | - | - | - |
| 1777709129 | 15.56° C | 63% | 1024.3 hPa | 0 mm | - | - | - |
| 1777708828 | 15.56° C | 65% | 1024.3 hPa | 0 mm | - | - | - |
| 1777708528 | 15° C | 65% | 1024.3 hPa | 0 mm | - | - | - |
| 1777708227 | 14.44° C | 65% | 1024.4 hPa | 0 mm | - | - | - |
| 1777707928 | 14.44° C | 67% | 1024.3 hPa | 0 mm | - | - | - |
| 1777707627 | 13.89° C | 68% | 1024.3 hPa | 0 mm | - | - | - |
| 1777707327 | 13.89° C | 68% | 1024.5 hPa | 0 mm | - | - | - |
* Rain latest hour (hover to see other rain measurements)
** Current wind speed in m/s (hover to see current wind gust speed)